Location: Newark
(49.8969°N, 3.3422°E)
Time: 02:03:37
(UTC+00:00)

Vanguard 1 Rocket - Pass Details

Date: 25 January 2020
Orbit: 650 x 4226 km, 34.3° (Epoch: 25 February)

Event Time Altitude Azimuth Distance (km) Brightness Sun altitude
Rises 14:38:43 0° 269° (W) 5,716 12.1 12.6°
Reaches altitude 10° 14:42:25 10° 260° (W) 5,150 12.1 12.2°
Maximum altitude 14:56:06 33° 204° (SSW) 4,792 12.4 10.8°
Drops below altitude 10° 15:16:01 10° 152° (SSE) 7,392 12.3 8.5°
Sets 15:23:01 0° 144° (SE) 8,454 12.4 7.7°
